Location: Emblem
(62.4273°N, 6.4710°E)
Time: 06:48:43
(UTC+02:00)

Transit 2A - Pass Details

Date: 09 March 2024
Orbit: 596 x 956 km, 66.7° (Epoch: 24 April)

Event Time Altitude Azimuth Distance (km) Brightness Sun altitude
Rises 21:49:34 0° 284° (WNW) 2,889 10.0 -23.3°
Reaches altitude 10° 21:51:48 10° 290° (WNW) 2,012 9.1 -23.5°
Maximum altitude 21:56:14 52° 7° (N) 832 6.3 -23.9°
Enters shadow 21:57:28 40° 54° (NE) 990 6.4 -24.0°
